Location: Archemont
(49.1579°N, 1.7598°E)
Time: 15:20:48
(UTC+00:00)

Cosmos 1980 Rocket - Pass Details

Date: 03 February 2023
Orbit: 828 x 850 km, 71.0° (Epoch: 30 March)

Event Time Altitude Azimuth Distance (km) Brightness Sun altitude
Rises 18:43:40 0° 254° (WSW) 3,393 6.9 -18.3°
Reaches altitude 10° 18:46:40 10° 270° (W) 2,465 5.9 -18.8°
Maximum altitude 18:50:59 22° 320° (NW) 1,780 4.3 -19.5°
Drops below altitude 10° 18:55:21 10° 10° (N) 2,484 4.5 -20.2°
Enters shadow 18:57:16 - 21° (NNE) 3,056 4.9 -20.5°
